MST,Max TemperatureF,Mean TemperatureF,Min TemperatureF,Max Dew PointF,MeanDew PointF,Min DewpointF,Max Humidity, Mean Humidity, Min Humidity, Max Sea Level PressureIn, Mean Sea Level PressureIn, Min Sea Level PressureIn, Max VisibilityMiles, Mean VisibilityMiles, Min VisibilityMiles, Max Wind SpeedMPH, Mean Wind SpeedMPH, Max Gust SpeedMPH,PrecipitationIn, CloudCover, Events, WindDirDegrees
2012-12-1,44,35,26,34,29,23,93,85,66,29.76,29.70,29.62,10,10,9,9,4,,0.00,1,,165
2012-12-2,51,40,28,39,30,25,87,69,50,29.72,29.47,29.26,10,10,10,30,7,39,0.00,3,,195
2012-12-3,51,42,33,36,23,19,71,48,32,30.01,29.78,29.52,10,10,10,30,17,43,0.00,1,,271
2012-12-4,39,28,17,25,21,14,86,66,52,30.13,30.03,29.90,10,10,10,16,9,,0.00,0,,84
2012-12-5,50,42,33,34,24,16,65,53,44,29.89,29.75,29.61,10,10,10,23,10,33,0.00,1,,231
2012-12-6,42,32,21,19,18,14,80,61,36,30.00,29.94,29.88,10,10,10,17,10,25,0.00,1,,266
2012-12-7,28,24,21,27,21,16,100,86,69,29.91,29.84,29.71,10,4,0,7,3,,0.00,5,,101
2012-12-8,23,10,-2,21,10,-8,93,85,72,30.26,29.84,29.60,10,6,0,25,9,30,0.00,5,,14
2012-12-9,12,0,-9,5,-4,-17,100,77,60,30.37,30.19,29.82,10,10,10,16,8,,0.00,1,,195
2012-12-10,28,20,12,21,16,5,93,74,68,29.80,29.76,29.67,10,10,10,22,14,29,0.00,4,,266
2012-12-11,35,24,12,28,19,7,100,78,64,29.79,29.62,29.48,10,10,10,16,9,,0.00,4,,205
2012-12-12,37,29,21,28,25,19,93,81,65,29.85,29.65,29.50,10,9,2,10,6,,0.00,4,,33
2012-12-13,33,27,21,30,26,18,100,92,86,29.90,29.85,29.78,10,3,0,15,6,,0.00,8,,192
2012-12-14,30,21,12,28,20,9,100,90,79,29.77,29.68,29.62,10,6,0,9,4,,0.00,2,,218
2012-12-15,30,20,10,25,18,7,100,87,79,29.79,29.75,29.69,10,8,0,7,4,,0.00,1,,97
2012-12-16,28,19,10,27,15,7,100,89,79,29.71,29.64,29.61,10,7,0,5,1,,0.00,4,,220
2012-12-17,26,17,8,23,16,3,100,85,74,29.60,29.44,29.34,10,10,10,9,4,,0.00,4,,149
2012-12-18,33,22,12,30,19,5,93,74,59,29.75,29.55,29.39,10,10,1,26,13,32,0.00,4,,275
2012-12-19,21,13,5,14,8,-2,100,78,62,30.04,29.93,29.75,10,10,7,17,9,23,0.00,2,,280
2012-12-20,26,14,3,16,8,0,85,70,59,30.03,30.00,29.95,10,10,10,13,8,,0.00,0,,182
2012-12-21,33,24,15,19,14,9,80,69,55,30.00,29.95,29.92,10,10,10,16,9,,0.00,0,,191
2012-12-22,17,10,3,12,2,-2,85,77,67,30.14,30.06,29.95,10,10,10,14,10,,0.00,2,,32
2012-12-23,10,2,-5,5,0,-17,100,81,60,30.06,30.00,29.93,10,8,1,15,9,,0.00,4,,31
2012-12-24,3,-1,-5,0,-5,-11,100,84,71,30.34,30.17,30.03,10,9,0,10,5,,0.00,2,,33
2012-12-25,8,-2,-11,1,-4,-17,100,82,66,30.37,30.28,30.13,10,7,1,8,3,,0.00,2,,226
2012-12-26,5,-4,-14,1,-8,-24,100,85,64,30.12,29.98,29.90,10,9,0,8,4,,0.00,2,,35
2012-12-27,10,2,-5,7,-1,-18,100,84,55,29.98,29.94,29.91,10,10,10,6,1,,0.00,3,,235
2012-12-28,15,4,-7,10,0,-15,100,83,65,29.97,29.95,29.91,10,10,8,8,4,,0.00,2,,201
2012-12-29,24,15,6,16,9,0,100,78,67,30.01,29.98,29.95,10,10,10,10,7,,0.00,0,,200
2012-12-30,26,16,5,21,14,1,100,85,73,30.06,30.00,29.91,10,10,5,14,6,,0.00,3,,273
2012-12-31,21,14,6,18,13,0,93,87,72,30.06,30.03,29.99,10,9,0,9,4,,0.00,6,,207